Location: Astronomy Club of Akron Observatory
(40.9700°N, 81.5606°W)
Time: 07:59:39
(UTC-04:00)

ISS - Pass Details

Date: 19 July 2018
Orbit: 402 x 408 km, 51.6° (Epoch: 21 July)

Event Time Altitude Azimuth Distance (km) Brightness Sun altitude
Rises 04:54:07 0° 308° (NW) 2,332 -0.1 -12.5°
Reaches altitude 10° 04:56:13 10° 312° (NW) 1,470 -1.1 -12.2°
Maximum altitude 04:59:29 60° 33° (NNE) 470 -3.2 -11.8°
Drops below altitude 10° 05:02:44 10° 115° (ESE) 1,464 -0.7 -11.3°
Sets 05:04:50 0° 119° (ESE) 2,322 0.3 -11.0°
